Погода Силуте

Поиск расширенной информации на нашем сайте:

Полезная информация:

Новости сайта



02.01.2020
Опубликован Долгосрочный прогноз погоды по городам России и ближнего зарубежья на январь 2020 года.
Карты: Прогноз на январь и февраль 2020 года, Сравнение прогнозируемой аномалии приземной температуры воздуха на январь 2020 года по разным моделям.




Погода Силуте - сегодня

Время (UTC), дата Ветер
(°,м/с) 
Видим.   Явления Облачность Т
(°С)
Тd
(°С)
f(%) Тe
(°С)
Pmin
(гПа)
dP
(гПа)
Po
(мм)
O2
(г/м3)
Тmin Tmax R s Состояние
почвы
00 16.01.22 220 (ЮЗ) 3-3{04}  20000 м    9/0 
+0 -1.1 92 -2  1021  -0.9  765  308           
03 16.01.22 250 (З) 6-8{08}  19000 м    9/9 300 м 
+1.5 +0.2 91 -2  1019.1  -1.8  764  306           
06 16.01.22 230 (ЮЗ) 7-11{11}  6000 м  слаб. дождь  10/10 300 м 
+0.4 -1.2 89 -3  1017  -2.1  762  307  -1.6    0.0     
09 16.01.22 220 (ЮЗ) 8-12{12}  4800 м  дымка  10/10 200 м 
-0.7 -1.4 95 -5  1016.3  -0.7  762  308           
12 16.01.22 210 (ЮЗ) 7-11{12}  12000 м  в посл. час снег  10/10 200 м 
-0.2 -1.5 91 -4  1013.3  -3  760  306      0.1     
15 16.01.22 220 (ЮЗ) 8-11{11}  11000 м  в посл. час снег  10/10 200 м 
+0 -0.6 96 -4  1010.2  -3.1  757  305           
18 16.01.22 220 (ЮЗ) 9-11{13}  2100 м  слаб. морось  10/10 100 м 
+0.2 -0.6 94 -4  1006.5  -3.7  754  304    +0.3  0.2     
21 16.01.22 250 (З) 10-13{16}  6000 м  слаб. ливневой дождь  9/9 200 м 
+2.8 +2.4 97 -1  1002.5  -4  751  299           
00 17.01.22 260 (З) 11-15{16}  9000 м  в посл. час дождь  9/9 300 м 
+3.7 +2.8 94 -1  998.1  -4.4  748  297      0.6     
03 17.01.22 260 (З) 14-20{22}  18000 м  морось  10/10 300 м 
+3.9 +1.4 84 -1  992.1  -6  744  295           
06 17.01.22 330 (СЗ) 9-13{27}  20000 м  в посл. час дождь  10/0 
+2.3 -0.6 81 -2  989.5  -2.6  742  296  +0.1       
09 17.01.22 320 (СЗ) 13-20{24}  20000 м  слаб. ливневой дождь  9/9 1500 м 
+2.1 -5 59 -3  994.9  5.4  746  299           
12 17.01.22 330 (СЗ) 13-23{23}  20000 м    9/0 
+2.9 -3.9 61 -2  999  4.1  749  299           
15 17.01.22 340 (С) 13-20{23}  20000 м    5/0 
+2.4 -4.6 60 -3  1005.8  6.8  754  302           
18 17.01.22 340 (С) 9-13{22}  20000 м    ясно <0100 м 
+1.6 -5.9 57 -3  1012.5  6.7  759  305    +3.1       
21 17.01.22 330 (СЗ) 6-10{13}  20000 м    8/8 1000 м 
+1.3 -4.2 67 -2  1016.6  4.1  762  306           
00 18.01.22 310 (СЗ) 6-9{11}  20000 м    9/0 
+1.8 -3.3 69 -1  1017.8  1.3  763  306           
03 18.01.22 340 (С) 8-11{13}  20000 м    1/0 
+1.6 -2.2 76 -2  1020.4  2.5  765  307           
06 18.01.22 330 (СЗ) 3-5{11}  20000 м    1/0 
-0.3 -2.7 84 -2  1023.9  3.4  767  310  -0.6         
09 18.01.22 330 (СЗ) 4-6{07}  20000 м    ясно <0100 м 
+2.2 -2.8 69 1026.5  2.7  769  308           
12 18.01.22 300 (СЗ) 2-3{09}  20000 м  в посл. час снег  6/0 
+1.2 +0.1 92 +1  1027.7  1.1  770  309      0.1     
15 18.01.22 290 (З) 4-5{06}  20000 м    ясно 
+0.3 -1.9 85 -2  1028.6  0.9  771  311           
18 18.01.22 260 (З) 3-4{05}  20000 м    1/0 
-0.9 -1.8 94 -3  1027.9  -0.7  770  312    +3.9  0.1     
21 18.01.22 240 (ЮЗ) 4-5{05}  20000 м    ясно 
+0.1 -1.2 91 -2  1026  -1.9  769  310           
00 19.01.22 240 (ЮЗ) 6-9{10}  19000 м  в посл. час дождь  10/10 100 м 
+1.8 +1.5 98 -1  1023.3  -2.6  767  307      0.1     
Время (UTC), дата Ветер
(°,м/с) 
Видим.   Явления Облачность Т
(°С)
Тd
(°С)
f(%) Тe
(°С)
Pmin
(гПа)
dP
(гПа)
Po
(мм)
O2
(г/м3)
Тmin Tmax R s Состояние
почвы

Для получения пояснительной информации подведите курсор к названию столбца.

ПОГОДА Силуте - архив

Всё, что Вы хотите узнать о погоде Силуте - удобно и подробно!

Выберите нужную дату (начиная с 1 января 2019* года) и нажмите кнопку "Найти".
Будут отображены архивные сводки погоды по пункту Силуте, начиная с указанной даты.


Отображать данные в формате CSV (для использования в таблицах Excel)


Внимание! Наш архив погоды предназначен исключительно для личного некоммерческого использования в познавательных целях. Если Вам необходимы официальные справки о состоянии погоды (для производственных, юридических, коммерческих и т.п. целей), обращайтесь в органы Росгидромета.

*Примечание: данная дата относится к архиву по метеостанциям СССР (Россия, СНГ, Балтия).
Архив по метеостанциям Зарубежной Европы и Азии (кроме Китая) хранится 10 дней, по другим регионам земного шара (Китай, Африка, Америка, Австралия, Океания) - 1 день.

Силуте - район местоположения метеостанции


Название, широта, долгота, высота метеостанции:
Силуте 55.3°ш. 21.5°д. 5 м над ур. моря [Литва]

Дополнительная информация

В oтличие oт бoльшинства пoгoдных сайтoв мы публикуем пoдрoбную метеoинфoрмацию в детальнoм прoфессиoнальнoм фoрмате.

Характеристики температуры и влажнoсти вoздуха измеряются на высoте 2 м в тени вдали oт зданий и деревьев.
Скoрoсть ветра измеряется на высoте 10 м (на урoвне рoста челoвека скoрoсть ветра ниже в 1.5-2 раза). Если метеoстанция нахoдится в гoрoде или в лесу, тo скoрoсть ветра занижена на 2-4 м/с пo сравнению с oткрытым местoм. Скoрoсть ветра над акватoриями крупных рек и oзёр, а также на вершинах хoлмoв на 2-5 м/с выше, чем в oбычных услoвиях.
Атмoсфернoе давление в разных тoчках местнoсти мoжет значительнo oтличаться oт давления на метеoстанции, в зависимoсти oт услoвий рельефа (при пoдъёме на 10 м давление пoнижается примернo на 1 мм рт.ст.).